| time (UTC) | temp C | wind direction | speed KPH | gust KPH | rain 1hr cm | rain 24hr cm | rain mn cm | humidity % | barometer mb |
| 20260508141558 | 25 | 19 | 8.0 | 17.7 | 0.00 | 0.00 | 0.00 | 38 | 1020.5 |
| 20260508141056 | 25 | 224 | 3.2 | 17.7 | 0.00 | 0.00 | 0.00 | 38 | 1020.5 |
| 20260508140553 | 26 | 335 | 12.9 | 17.7 | 0.00 | 0.00 | 0.00 | 36 | 1020.8 |
| 20260508140049 | 26 | 342 | 12.9 | 17.7 | 0.00 | 0.00 | 0.00 | 35 | 1020.7 |
| 20260508135545 | 26 | 20 | 11.3 | 20.9 | 0.00 | 0.00 | 0.00 | 35 | 1020.8 |
| 20260508135041 | 26 | 42 | 11.3 | 17.7 | 0.00 | 0.00 | 0.00 | 35 | 1020.8 |
| 20260508134538 | 26 | 330 | 11.3 | 16.1 | 0.00 | 0.00 | 0.00 | 35 | 1020.8 |
| 20260508134035 | 26 | 51 | 11.3 | 20.9 | 0.00 | 0.00 | 0.00 | 34 | 1020.8 |
| 20260508133532 | 26 | 17 | 19.3 | 24.1 | 0.00 | 0.00 | 0.00 | 35 | 1020.7 |
| 20260508133029 | 25 | 7 | 8.0 | 17.7 | 0.00 | 0.00 | 0.00 | 36 | 1020.7 |
| 20260508132527 | 26 | 14 | 14.5 | 17.7 | 0.00 | 0.00 | 0.00 | 34 | 1020.7 |
| 20260508132024 | 26 | 29 | 16.1 | 17.7 | 0.00 | 0.00 | 0.00 | 34 | 1020.9 |
| 20260508131519 | 26 | 3 | 11.3 | 16.1 | 0.00 | 0.00 | 0.00 | 34 | 1020.7 |
| 20260508131016 | 26 | 30 | 14.5 | 17.7 | 0.00 | 0.00 | 0.00 | 31 | 1021.0 |
| 20260508130513 | 26 | 55 | 14.5 | 16.1 | 0.00 | 0.00 | 0.00 | 33 | 1020.9 |
| 20260508130009 | 26 | 15 | 4.8 | 16.1 | 0.00 | 0.00 | 0.00 | 36 | 1021.0 |
| 20260508125505 | 26 | 13 | 9.7 | 14.5 | 0.00 | 0.00 | 0.00 | 32 | 1020.9 |
| 20260508125003 | 26 | 14 | 8.0 | 16.1 | 0.00 | 0.00 | 0.00 | 32 | 1020.8 |
| 20260508124501 | 26 | 40 | 6.4 | 14.5 | 0.00 | 0.00 | 0.00 | 34 | 1021.0 |
| 20260508123957 | 26 | 28 | 8.0 | 14.5 | 0.00 | 0.00 | 0.00 | 32 | 1021.1 |
| 20260508123456 | 25 | 289 | 4.8 | 11.3 | 0.00 | 0.00 | 0.00 | 36 | 1021.0 |
| 20260508122952 | 25 | 34 | 8.0 | 17.7 | 0.00 | 0.00 | 0.00 | 35 | 1021.2 |
| 20260508122449 | 25 | 69 | 11.3 | 25.7 | 0.00 | 0.00 | 0.00 | 38 | 1021.2 |
| 20260508121946 | 25 | 34 | 4.8 | 20.9 | 0.00 | 0.00 | 0.00 | 37 | 1021.3 |
| 20260508121444 | 25 | 34 | 17.7 | 20.9 | 0.00 | 0.00 | 0.00 | 35 | 1021.4 |
| 20260508120942 | 26 | 18 | 11.3 | 17.7 | 0.00 | 0.00 | 0.00 | 35 | 1021.5 |
| 20260508120439 | 26 | 10 | 12.9 | 17.7 | 0.00 | 0.00 | 0.00 | 35 | 1021.5 |
| 20260508115937 | 26 | 22 | 8.0 | 16.1 | 0.00 | 0.00 | 0.00 | 34 | 1021.4 |
| 20260508115435 | 25 | 19 | 14.5 | 20.9 | 0.00 | 0.00 | 0.00 | 35 | 1021.4 |
| 20260508114931 | 26 | 23 | 14.5 | 24.1 | 0.00 | 0.00 | 0.00 | 38 | 1021.4 |
| 20260508114428 | 25 | 24 | 6.4 | 20.9 | 0.00 | 0.00 | 0.00 | 38 | 1021.4 |
| 20260508113924 | 25 | 354 | 6.4 | 14.5 | 0.00 | 0.00 | 0.00 | 39 | 1021.6 |
| 20260508113423 | 25 | 30 | 14.5 | 17.7 | 0.00 | 0.00 | 0.00 | 37 | 1021.4 |
| 20260508112919 | 25 | 66 | 12.9 | 25.7 | 0.00 | 0.00 | 0.00 | 39 | 1021.4 |
| 20260508112416 | 25 | 37 | 16.1 | 29.0 | 0.00 | 0.00 | 0.00 | 36 | 1021.5 |
| 20260508111913 | 25 | 33 | 19.3 | 24.1 | 0.00 | 0.00 | 0.00 | 39 | 1021.6 |
| 20260508111410 | 25 | 61 | 11.3 | 22.5 | 0.00 | 0.00 | 0.00 | 40 | 1021.3 |
| 20260508110907 | 25 | 33 | 16.1 | 27.4 | 0.00 | 0.00 | 0.00 | 40 | 1021.5 |
| 20260508110405 | 25 | 31 | 14.5 | 25.7 | 0.00 | 0.00 | 0.00 | 39 | 1021.7 |
| 20260508105904 | 25 | 8 | 25.7 | 29.0 | 0.00 | 0.00 | 0.00 | 39 | 1021.8 |
| 20260508105401 | 25 | 60 | 14.5 | 32.2 | 0.00 | 0.00 | 0.00 | 40 | 1021.6 |
| 20260508104858 | 25 | 40 | 16.1 | 25.7 | 0.00 | 0.00 | 0.00 | 41 | 1021.6 |
| 20260508104355 | 25 | 51 | 14.5 | 22.5 | 0.00 | 0.00 | 0.00 | 40 | 1021.5 |
| 20260508103852 | 25 | 21 | 22.5 | 29.0 | 0.00 | 0.00 | 0.00 | 42 | 1021.6 |
| 20260508103349 | 25 | 342 | 11.3 | 22.5 | 0.00 | 0.00 | 0.00 | 40 | 1021.7 |
| 20260508102847 | 25 | 24 | 19.3 | 32.2 | 0.00 | 0.00 | 0.00 | 39 | 1021.6 |
| 20260508102345 | 25 | 1 | 25.7 | 29.0 | 0.00 | 0.00 | 0.00 | 40 | 1021.8 |
| 20260508101842 | 25 | 108 | 12.9 | 25.7 | 0.00 | 0.00 | 0.00 | 41 | 1021.7 |
| 20260508101339 | 25 | 34 | 19.3 | 27.4 | 0.00 | 0.00 | 0.00 | 41 | 1021.6 |
| 20260508100836 | 25 | 28 | 14.5 | 33.8 | 0.00 | 0.00 | 0.00 | 41 | 1021.9 |
| 20260508100335 | 25 | 8 | 16.1 | 32.2 | 0.00 | 0.00 | 0.00 | 40 | 1021.8 |
| 20260508095830 | 25 | 50 | 19.3 | 24.1 | 0.00 | 0.00 | 0.00 | 39 | 1021.9 |
| 20260508095328 | 25 | 14 | 17.7 | 25.7 | 0.00 | 0.00 | 0.00 | 39 | 1021.9 |
| 20260508094825 | 25 | 66 | 20.9 | 27.4 | 0.00 | 0.00 | 0.00 | 39 | 1021.8 |
| 20260508094322 | 25 | 341 | 24.1 | 33.8 | 0.00 | 0.00 | 0.00 | 39 | 1022.1 |
| 20260508093819 | 25 | 356 | 16.1 | 32.2 | 0.00 | 0.00 | 0.00 | 40 | 1021.9 |
| 20260508093316 | 25 | 40 | 20.9 | 25.7 | 0.00 | 0.00 | 0.00 | 40 | 1022.1 |
| 20260508092813 | 25 | 57 | 19.3 | 27.4 | 0.00 | 0.00 | 0.00 | 40 | 1022.2 |
| 20260508092313 | 25 | 24 | 11.3 | 27.4 | 0.00 | 0.00 | 0.00 | 40 | 1022.2 |
| 20260508091809 | 25 | 9 | 16.1 | 32.2 | 0.00 | 0.00 | 0.00 | 39 | 1022.2 |
| 20260508091306 | 25 | 29 | 14.5 | 25.7 | 0.00 | 0.00 | 0.00 | 40 | 1022.2 |
| 20260508090804 | 25 | 107 | 9.7 | 27.4 | 0.00 | 0.00 | 0.00 | 39 | 1022.3 |
| 20260508090302 | 25 | 52 | 12.9 | 22.5 | 0.00 | 0.00 | 0.00 | 39 | 1022.4 |
| 20260508085757 | 25 | 323 | 22.5 | 29.0 | 0.00 | 0.00 | 0.00 | 36 | 1022.5 |
| 20260508085254 | 25 | 351 | 17.7 | 24.1 | 0.00 | 0.00 | 0.00 | 37 | 1022.5 |
| 20260508084750 | 25 | 11 | 19.3 | 25.7 | 0.00 | 0.00 | 0.00 | 37 | 1022.5 |
| 20260508084248 | 25 | 11 | 14.5 | 24.1 | 0.00 | 0.00 | 0.00 | 35 | 1022.3 |
| 20260508083745 | 25 | 354 | 16.1 | 24.1 | 0.00 | 0.00 | 0.00 | 36 | 1022.2 |
| 20260508083242 | 25 | 346 | 17.7 | 29.0 | 0.00 | 0.00 | 0.00 | 36 | 1022.6 |
| 20260508082737 | 25 | 355 | 20.9 | 24.1 | 0.00 | 0.00 | 0.00 | 35 | 1022.5 |
| 20260508082235 | 25 | 343 | 11.3 | 20.9 | 0.00 | 0.00 | 0.00 | 36 | 1022.6 |
| 20260508081732 | 25 | 357 | 12.9 | 20.9 | 0.00 | 0.00 | 0.00 | 34 | 1022.6 |
| 20260508081228 | 25 | 16 | 17.7 | 22.5 | 0.00 | 0.00 | 0.00 | 35 | 1022.7 |
| 20260508080725 | 24 | 322 | 14.5 | 22.5 | 0.00 | 0.00 | 0.00 | 36 | 1022.5 |
| 20260508080223 | 25 | 326 | 12.9 | 16.1 | 0.00 | 0.00 | 0.00 | 36 | 1022.6 |
| 20260508075719 | 24 | 335 | 12.9 | 24.1 | 0.00 | 0.00 | 0.00 | 37 | 1022.8 |
| 20260508075217 | 24 | 6 | 19.3 | 22.5 | 0.00 | 0.00 | 0.00 | 35 | 1022.8 |
| 20260508074714 | 23 | 316 | 17.7 | 20.9 | 0.00 | 0.00 | 0.00 | 36 | 1022.7 |
| 20260508074212 | 24 | 346 | 16.1 | 25.7 | 0.00 | 0.00 | 0.00 | 36 | 1022.9 |
| 20260508073708 | 24 | 109 | 3.2 | 14.5 | 0.00 | 0.00 | 0.00 | 36 | 1022.6 |
| 20260508073207 | 23 | 348 | 14.5 | 22.5 | 0.00 | 0.00 | 0.00 | 36 | 1022.9 |
| 20260508072702 | 24 | 60 | 6.4 | 17.7 | 0.00 | 0.00 | 0.00 | 37 | 1022.9 |
| 20260508072159 | 23 | 333 | 11.3 | 12.9 | 0.00 | 0.00 | 0.00 | 36 | 1022.7 |
| 20260508071656 | 23 | 315 | 12.9 | 20.9 | 0.00 | 0.00 | 0.00 | 36 | 1022.7 |
| 20260508071155 | 23 | 3 | 14.5 | 16.1 | 0.00 | 0.00 | 0.00 | 35 | 1022.7 |
| 20260508070652 | 23 | 340 | 8.0 | 12.9 | 0.00 | 0.00 | 0.00 | 35 | 1022.9 |
| 20260508070151 | 23 | 333 | 11.3 | 20.9 | 0.00 | 0.00 | 0.00 | 34 | 1022.9 |
| 20260508065647 | 23 | 320 | 9.7 | 12.9 | 0.00 | 0.00 | 0.00 | 36 | 1022.8 |
| 20260508065145 | 23 | 309 | 8.0 | 11.3 | 0.00 | 0.00 | 0.00 | 33 | 1022.8 |
| 20260508064643 | 23 | 355 | 9.7 | 12.9 | 0.00 | 0.00 | 0.00 | 34 | 1022.8 |
| 20260508064141 | 23 | 27 | 8.0 | 16.1 | 0.00 | 0.00 | 0.00 | 38 | 1022.9 |
| 20260508063638 | 23 | 330 | 8.0 | 14.5 | 0.00 | 0.00 | 0.00 | 39 | 1022.9 |
| 20260508063136 | 23 | 341 | 14.5 | 17.7 | 0.00 | 0.00 | 0.00 | 38 | 1022.8 |
| 20260508062633 | 22 | 332 | 6.4 | 12.9 | 0.00 | 0.00 | 0.00 | 43 | 1023.0 |
| 20260508062129 | 22 | 297 | 14.5 | 16.1 | 0.00 | 0.00 | 0.00 | 42 | 1023.0 |
| 20260508061627 | 22 | 322 | 9.7 | 14.5 | 0.00 | 0.00 | 0.00 | 44 | 1022.7 |
| 20260508061124 | 22 | 263 | 11.3 | 12.9 | 0.00 | 0.00 | 0.00 | 44 | 1022.8 |
| 20260508060621 | 22 | 271 | 6.4 | 16.1 | 0.00 | 0.00 | 0.00 | 44 | 1022.8 |
| 20260508060118 | 22 | 348 | 14.5 | 17.7 | 0.00 | 0.00 | 0.00 | 44 | 1022.6 |
| 20260508055613 | 21 | 314 | 12.9 | 17.7 | 0.00 | 0.00 | 0.00 | 45 | 1022.9 |
| 20260508055111 | 22 | 319 | 9.7 | 12.9 | 0.00 | 0.00 | 0.00 | 45 | 1022.8 |
| 20260508054607 | 21 | 286 | 9.7 | 16.1 | 0.00 | 0.00 | 0.00 | 46 | 1022.6 |
| 20260508054105 | 21 | 317 | 14.5 | 16.1 | 0.00 | 0.00 | 0.00 | 46 | 1022.6 |
| 20260508053601 | 21 | 304 | 14.5 | 17.7 | 0.00 | 0.00 | 0.00 | 46 | 1022.6 |
| 20260508053059 | 21 | 316 | 8.0 | 17.7 | 0.00 | 0.00 | 0.00 | 47 | 1022.7 |
| 20260508052556 | 21 | 281 | 4.8 | 22.5 | 0.00 | 0.00 | 0.00 | 47 | 1022.7 |
| 20260508052053 | 21 | 305 | 14.5 | 20.9 | 0.00 | 0.00 | 0.00 | 46 | 1022.7 |
| 20260508051549 | 20 | 300 | 11.3 | 16.1 | 0.00 | 0.00 | 0.00 | 47 | 1022.8 |
| 20260508051045 | 20 | 323 | 8.0 | 20.9 | 0.00 | 0.00 | 0.00 | 47 | 1022.7 |
| 20260508050541 | 20 | 301 | 14.5 | 17.7 | 0.00 | 0.00 | 0.00 | 48 | 1022.7 |
| 20260508050038 | 20 | 288 | 6.4 | 14.5 | 0.00 | 0.00 | 0.00 | 49 | 1022.5 |
| 20260508045534 | 20 | 296 | 12.9 | 16.1 | 0.00 | 0.00 | 0.00 | 48 | 1022.7 |
| 20260508045033 | 20 | 317 | 9.7 | 14.5 | 0.00 | 0.00 | 0.00 | 49 | 1022.4 |
| 20260508044530 | 19 | 302 | 11.3 | 14.5 | 0.00 | 0.00 | 0.00 | 49 | 1022.3 |
| 20260508044025 | 19 | 308 | 17.7 | 20.9 | 0.00 | 0.00 | 0.00 | 49 | 1022.5 |
| 20260508043522 | 19 | 273 | 6.4 | 9.7 | 0.00 | 0.00 | 0.00 | 50 | 1022.6 |
| 20260508043020 | 19 | 292 | 14.5 | 16.1 | 0.00 | 0.00 | 0.00 | 50 | 1022.7 |
| 20260508042516 | 18 | 302 | 8.0 | 16.1 | 0.00 | 0.00 | 0.00 | 51 | 1022.3 |
| 20260508042014 | 18 | 269 | 11.3 | 16.1 | 0.00 | 0.00 | 0.00 | 51 | 1022.5 |
| 20260508041510 | 18 | 314 | 8.0 | 16.1 | 0.00 | 0.00 | 0.00 | 52 | 1022.2 |
| 20260508041007 | 18 | 304 | 12.9 | 17.7 | 0.00 | 0.00 | 0.00 | 52 | 1022.3 |
| 20260508040504 | 17 | 329 | 9.7 | 17.7 | 0.00 | 0.00 | 0.00 | 52 | 1022.1 |
| 20260508040001 | 17 | 321 | 11.3 | 20.9 | 0.00 | 0.00 | 0.00 | 53 | 1022.1 |
| 20260508035458 | 17 | 316 | 11.3 | 16.1 | 0.00 | 0.00 | 0.00 | 55 | 1022.1 |
| 20260508034955 | 17 | 305 | 11.3 | 16.1 | 0.00 | 0.00 | 0.00 | 56 | 1021.9 |
| 20260508034452 | 17 | 322 | 14.5 | 20.9 | 0.00 | 0.00 | 0.00 | 57 | 1021.9 |
| 20260508033949 | 17 | 320 | 12.9 | 17.7 | 0.00 | 0.00 | 0.00 | 57 | 1021.9 |
| 20260508033447 | 17 | 330 | 17.7 | 22.5 | 0.00 | 0.00 | 0.00 | 58 | 1021.9 |
| 20260508032944 | 17 | 290 | 9.7 | 20.9 | 0.00 | 0.00 | 0.00 | 58 | 1022.0 |
| 20260508032441 | 17 | 338 | 11.3 | 17.7 | 0.00 | 0.00 | 0.00 | 58 | 1021.5 |
| 20260508031938 | 17 | 315 | 14.5 | 22.5 | 0.00 | 0.00 | 0.00 | 59 | 1021.7 |
| 20260508031436 | 16 | 331 | 14.5 | 22.5 | 0.00 | 0.00 | 0.00 | 60 | 1021.9 |
| 20260508030931 | 16 | 345 | 11.3 | 25.7 | 0.00 | 0.00 | 0.00 | 60 | 1021.6 |
| 20260508030428 | 16 | 293 | 16.1 | 22.5 | 0.00 | 0.00 | 0.00 | 61 | 1021.8 |
| 20260508025926 | 16 | 314 | 14.5 | 20.9 | 0.00 | 0.00 | 0.00 | 63 | 1021.8 |
| 20260508025422 | 16 | 309 | 11.3 | 16.1 | 0.00 | 0.00 | 0.00 | 64 | 1021.5 |
| 20260508024919 | 16 | 321 | 16.1 | 22.5 | 0.00 | 0.00 | 0.00 | 65 | 1021.6 |
| 20260508024416 | 15 | 301 | 14.5 | 22.5 | 0.00 | 0.00 | 0.00 | 67 | 1021.4 |
| 20260508023912 | 15 | 295 | 11.3 | 24.1 | 0.00 | 0.00 | 0.00 | 68 | 1021.3 |
| 20260508023409 | 15 | 324 | 17.7 | 20.9 | 0.00 | 0.00 | 0.00 | 69 | 1021.5 |
| 20260508022906 | 15 | 311 | 16.1 | 17.7 | 0.00 | 0.00 | 0.00 | 70 | 1021.3 |
| 20260508022401 | 15 | 301 | 11.3 | 16.1 | 0.00 | 0.00 | 0.00 | 70 | 1021.2 |
| 20260508021859 | 15 | 272 | 9.7 | 16.1 | 0.00 | 0.00 | 0.00 | 70 | 1021.3 |
| 20260508021355 | 15 | 334 | 9.7 | 14.5 | 0.00 | 0.00 | 0.00 | 70 | 1021.3 |
| 20260508020851 | 15 | 304 | 12.9 | 16.1 | 0.00 | 0.00 | 0.00 | 70 | 1021.4 |
| 20260508020349 | 15 | 327 | 12.9 | 20.9 | 0.00 | 0.00 | 0.00 | 70 | 1021.3 |
| 20260508015846 | 15 | 300 | 11.3 | 14.5 | 0.00 | 0.00 | 0.00 | 71 | 1021.3 |
| 20260508015344 | 15 | 285 | 11.3 | 17.7 | 0.00 | 0.00 | 0.00 | 71 | 1021.2 |
| 20260508014839 | 15 | 275 | 12.9 | 17.7 | 0.00 | 0.00 | 0.00 | 70 | 1021.1 |
| 20260508014337 | 16 | 315 | 11.3 | 16.1 | 0.00 | 0.00 | 0.00 | 70 | 1021.4 |
| 20260508013837 | 16 | 321 | 14.5 | 20.9 | 0.00 | 0.00 | 0.00 | 69 | 1021.2 |
| 20260508013334 | 16 | 318 | 14.5 | 24.1 | 0.00 | 0.00 | 0.00 | 69 | 1021.2 |
| 20260508012832 | 16 | 311 | 16.1 | 22.5 | 0.00 | 0.00 | 0.00 | 69 | 1021.5 |
| 20260508012329 | 16 | 324 | 14.5 | 20.9 | 0.00 | 0.00 | 0.00 | 69 | 1021.5 |
| 20260508011827 | 16 | 307 | 17.7 | 22.5 | 0.00 | 0.00 | 0.00 | 69 | 1021.2 |
| 20260508011324 | 16 | 320 | 17.7 | 22.5 | 0.00 | 0.00 | 0.00 | 69 | 1021.2 |
| 20260508010821 | 16 | 327 | 16.1 | 17.7 | 0.00 | 0.00 | 0.00 | 69 | 1021.1 |
| 20260508010319 | 16 | 310 | 12.9 | 16.1 | 0.00 | 0.00 | 0.00 | 69 | 1021.1 |
| 20260508005815 | 16 | 312 | 14.5 | 20.9 | 0.00 | 0.00 | 0.00 | 69 | 1021.3 |
| 20260508005312 | 16 | 316 | 22.5 | 27.4 | 0.00 | 0.00 | 0.00 | 69 | 1021.2 |
| 20260508004808 | 16 | 323 | 19.3 | 22.5 | 0.00 | 0.00 | 0.00 | 70 | 1021.3 |
| 20260508004304 | 16 | 304 | 9.7 | 22.5 | 0.00 | 0.00 | 0.00 | 71 | 1021.6 |
| 20260508003801 | 16 | 301 | 11.3 | 16.1 | 0.00 | 0.00 | 0.00 | 71 | 1021.5 |
| 20260508003259 | 16 | 321 | 12.9 | 17.7 | 0.00 | 0.00 | 0.00 | 71 | 1021.3 |
| 20260508002755 | 16 | 295 | 11.3 | 17.7 | 0.00 | 0.00 | 0.00 | 72 | 1021.3 |
| 20260508002252 | 16 | 318 | 17.7 | 20.9 | 0.00 | 0.00 | 0.00 | 72 | 1021.5 |
| 20260508001748 | 16 | 332 | 14.5 | 22.5 | 0.00 | 0.00 | 0.00 | 73 | 1021.6 |
| 20260508001244 | 16 | 300 | 14.5 | 22.5 | 0.00 | 0.00 | 0.00 | 73 | 1021.7 |
| 20260508000740 | 16 | 255 | 12.9 | 20.9 | 0.00 | 0.00 | 0.00 | 73 | 1021.7 |
| 20260508000238 | 16 | 260 | 17.7 | 25.7 | 0.00 | 0.00 | 0.00 | 73 | 1021.6 |
| 20260507235734 | 16 | 315 | 14.5 | 27.4 | 0.00 | 0.00 | 0.00 | 73 | 1021.4 |
| 20260507235231 | 16 | 298 | 14.5 | 20.9 | 0.00 | 0.00 | 0.00 | 74 | 1021.5 |
| 20260507234728 | 16 | 307 | 14.5 | 20.9 | 0.00 | 0.00 | 0.00 | 75 | 1021.4 |
| 20260507234225 | 16 | 287 | 11.3 | 24.1 | 0.00 | 0.00 | 0.00 | 75 | 1021.4 |
| 20260507233721 | 16 | 299 | 16.1 | 25.7 | 0.00 | 0.00 | 0.00 | 77 | 1021.9 |
| 20260507233219 | 16 | 282 | 17.7 | 24.1 | 0.00 | 0.00 | 0.00 | 78 | 1021.6 |
| 20260507232716 | 16 | 296 | 24.1 | 27.4 | 0.00 | 0.00 | 0.00 | 79 | 1021.7 |
| 20260507232213 | 16 | 299 | 12.9 | 20.9 | 0.00 | 0.00 | 0.00 | 79 | 1021.6 |
| 20260507231710 | 16 | 339 | 14.5 | 22.5 | 0.00 | 0.00 | 0.00 | 80 | 1021.6 |
| 20260507231207 | 16 | 319 | 14.5 | 24.1 | 0.00 | 0.00 | 0.00 | 80 | 1021.4 |
| 20260507230703 | 16 | 319 | 20.9 | 24.1 | 0.00 | 0.00 | 0.00 | 80 | 1021.5 |
| 20260507230201 | 16 | 312 | 19.3 | 24.1 | 0.00 | 0.00 | 0.00 | 81 | 1021.7 |
| 20260507225700 | 16 | 337 | 14.5 | 17.7 | 0.00 | 0.00 | 0.00 | 81 | 1021.7 |
| 20260507225157 | 16 | 311 | 16.1 | 20.9 | 0.00 | 0.00 | 0.00 | 81 | 1021.9 |
| 20260507224653 | 16 | 331 | 17.7 | 22.5 | 0.00 | 0.00 | 0.00 | 82 | 1021.9 |
| 20260507224149 | 16 | 297 | 12.9 | 24.1 | 0.00 | 0.00 | 0.00 | 82 | 1021.7 |
| 20260507223645 | 16 | 309 | 14.5 | 17.7 | 0.00 | 0.00 | 0.00 | 82 | 1021.9 |
| 20260507223143 | 16 | 313 | 14.5 | 22.5 | 0.00 | 0.00 | 0.00 | 83 | 1021.9 |
| 20260507222639 | 16 | 310 | 11.3 | 20.9 | 0.00 | 0.00 | 0.00 | 83 | 1021.9 |
| 20260507222136 | 16 | 316 | 14.5 | 24.1 | 0.00 | 0.00 | 0.00 | 83 | 1022.0 |
| 20260507221632 | 16 | 308 | 14.5 | 22.5 | 0.00 | 0.00 | 0.00 | 83 | 1022.2 |
| 20260507221129 | 16 | 325 | 14.5 | 24.1 | 0.00 | 0.00 | 0.00 | 83 | 1022.3 |
| 20260507220626 | 16 | 314 | 14.5 | 24.1 | 0.00 | 0.00 | 0.00 | 82 | 1022.2 |
| 20260507220124 | 16 | 9 | 11.3 | 20.9 | 0.00 | 0.00 | 0.00 | 82 | 1022.3 |
| 20260507215619 | 16 | 326 | 12.9 | 20.9 | 0.00 | 0.00 | 0.00 | 82 | 1022.2 |
| 20260507215117 | 16 | 342 | 12.9 | 20.9 | 0.00 | 0.00 | 0.00 | 82 | 1022.5 |
| 20260507214614 | 16 | 322 | 17.7 | 20.9 | 0.00 | 0.00 | 0.00 | 82 | 1022.6 |
| 20260507214110 | 16 | 312 | 14.5 | 20.9 | 0.00 | 0.00 | 0.00 | 83 | 1022.7 |
| 20260507213607 | 16 | 302 | 12.9 | 20.9 | 0.00 | 0.00 | 0.00 | 83 | 1022.6 |
| 20260507213104 | 16 | 302 | 12.9 | 20.9 | 0.00 | 0.00 | 0.00 | 82 | 1022.7 |
| 20260507212600 | 16 | 305 | 9.7 | 14.5 | 0.00 | 0.00 | 0.00 | 82 | 1022.8 |
| 20260507212057 | 16 | 339 | 14.5 | 20.9 | 0.00 | 0.00 | 0.00 | 81 | 1022.9 |
| 20260507211554 | 16 | 317 | 9.7 | 22.5 | 0.00 | 0.00 | 0.00 | 81 | 1022.7 |
| 20260507211050 | 16 | 349 | 17.7 | 20.9 | 0.00 | 0.00 | 0.00 | 81 | 1022.6 |
| 20260507210547 | 16 | 328 | 16.1 | 20.9 | 0.00 | 0.00 | 0.00 | 81 | 1022.4 |
| 20260507210044 | 16 | 347 | 14.5 | 24.1 | 0.00 | 0.00 | 0.00 | 81 | 1022.7 |
| 20260507205540 | 16 | 311 | 14.5 | 24.1 | 0.00 | 0.00 | 0.00 | 81 | 1022.7 |
| 20260507205037 | 16 | 286 | 12.9 | 17.7 | 0.00 | 0.00 | 0.00 | 81 | 1022.4 |
| 20260507204533 | 16 | 342 | 9.7 | 17.7 | 0.00 | 0.00 | 0.00 | 81 | 1022.5 |
| 20260507204031 | 16 | 295 | 11.3 | 16.1 | 0.00 | 0.00 | 0.00 | 81 | 1022.7 |
| 20260507203529 | 16 | 319 | 9.7 | 20.9 | 0.00 | 0.00 | 0.00 | 81 | 1022.5 |
| 20260507203026 | 16 | 307 | 9.7 | 14.5 | 0.00 | 0.00 | 0.00 | 80 | 1022.5 |
| 20260507202521 | 16 | 290 | 8.0 | 14.5 | 0.00 | 0.00 | 0.00 | 80 | 1022.8 |
| 20260507202018 | 16 | 307 | 8.0 | 14.5 | 0.00 | 0.00 | 0.00 | 80 | 1022.6 |
| 20260507201514 | 16 | 295 | 8.0 | 11.3 | 0.00 | 0.00 | 0.00 | 79 | 1022.8 |
| 20260507201010 | 16 | 315 | 6.4 | 8.0 | 0.00 | 0.00 | 0.00 | 78 | 1022.7 |
| 20260507200505 | 16 | 320 | 9.7 | 11.3 | 0.00 | 0.00 | 0.00 | 78 | 1022.6 |
| 20260507200001 | 16 | 319 | 8.0 | 9.7 | 0.00 | 0.00 | 0.00 | 77 | 1022.6 |
| 20260507195459 | 16 | 324 | 1.6 | 8.0 | 0.00 | 0.00 | 0.00 | 75 | 1022.8 |
| 20260507194956 | 16 | 158 | 0.0 | 3.2 | 0.00 | 0.00 | 0.00 | 75 | 1022.6 |
| 20260507194453 | 16 | 140 | 0.0 | 3.2 | 0.00 | 0.00 | 0.00 | 74 | 1022.8 |
| 20260507193948 | 16 | 152 | 0.0 | 0.0 | 0.00 | 0.00 | 0.00 | 73 | 1022.7 |
| 20260507193446 | 16 | 164 | 0.0 | 1.6 | 0.00 | 0.00 | 0.00 | 73 | 1022.6 |
| 20260507192942 | 16 | 155 | 1.6 | 4.8 | 0.00 | 0.00 | 0.00 | 72 | 1022.5 |
| 20260507192438 | 16 | 321 | 4.8 | 4.8 | 0.00 | 0.00 | 0.00 | 72 | 1022.5 |
| 20260507191936 | 16 | 351 | 4.8 | 8.0 | 0.00 | 0.00 | 0.00 | 72 | 1022.5 |
| 20260507191432 | 16 | 343 | 4.8 | 4.8 | 0.00 | 0.00 | 0.00 | 74 | 1022.5 |
| 20260507190928 | 16 | 37 | 8.0 | 11.3 | 0.00 | 0.00 | 0.00 | 75 | 1022.5 |
| 20260507190426 | 16 | 355 | 3.2 | 8.0 | 0.00 | 0.00 | 0.00 | 76 | 1022.6 |
| 20260507185925 | 16 | 280 | 6.4 | 8.0 | 0.00 | 0.00 | 0.00 | 77 | 1022.3 |
| 20260507185422 | 16 | 297 | 4.8 | 4.8 | 0.00 | 0.00 | 0.00 | 76 | 1022.7 |
| 20260507184919 | 16 | 276 | 4.8 | 8.0 | 0.00 | 0.00 | 0.00 | 77 | 1022.4 |
| 20260507184416 | 16 | 135 | 0.0 | 1.6 | 0.00 | 0.00 | 0.00 | 76 | 1022.3 |
| 20260507183914 | 16 | 109 | 1.6 | 1.6 | 0.00 | 0.00 | 0.00 | 75 | 1022.3 |
| 20260507183410 | 16 | 113 | 1.6 | 1.6 | 0.00 | 0.00 | 0.00 | 75 | 1022.3 |
| 20260507182908 | 16 | 80 | 1.6 | 3.2 | 0.00 | 0.00 | 0.00 | 75 | 1022.2 |
| 20260507182403 | 16 | 107 | 1.6 | 1.6 | 0.00 | 0.00 | 0.00 | 74 | 1022.2 |
| 20260507181900 | 16 | 117 | 0.0 | 1.6 | 0.00 | 0.00 | 0.00 | 73 | 1022.2 |
| 20260507181356 | 16 | 132 | 0.0 | 1.6 | 0.00 | 0.00 | 0.00 | 73 | 1022.2 |
| 20260507180853 | 16 | 231 | 1.6 | 3.2 | 0.00 | 0.00 | 0.00 | 73 | 1021.9 |
| 20260507180350 | 16 | 202 | 1.6 | 3.2 | 0.00 | 0.00 | 0.00 | 73 | 1021.9 |
| 20260507175845 | 16 | 216 | 1.6 | 1.6 | 0.00 | 0.00 | 0.00 | 73 | 1022.0 |
| 20260507175343 | 16 | 126 | 1.6 | 1.6 | 0.00 | 0.00 | 0.00 | 72 | 1021.9 |
| 20260507174840 | 17 | 128 | 0.0 | 1.6 | 0.00 | 0.00 | 0.00 | 72 | 1021.8 |
| 20260507174338 | 17 | 135 | 0.0 | 0.0 | 0.00 | 0.00 | 0.00 | 72 | 1022.0 |
| 20260507173835 | 17 | 117 | 0.0 | 1.6 | 0.00 | 0.00 | 0.00 | 71 | 1021.8 |
| 20260507173332 | 17 | 153 | 0.0 | 0.0 | 0.00 | 0.00 | 0.00 | 71 | 1021.8 |
| 20260507172828 | 17 | 219 | 1.6 | 3.2 | 0.00 | 0.00 | 0.00 | 71 | 1021.8 |
| 20260507172325 | 17 | 208 | 1.6 | 3.2 | 0.00 | 0.00 | 0.00 | 71 | 1021.9 |
| 20260507171821 | 17 | 218 | 0.0 | 0.0 | 0.00 | 0.00 | 0.00 | 70 | 1021.7 |
| 20260507171318 | 17 | 168 | 0.0 | 0.0 | 0.00 | 0.00 | 0.00 | 69 | 1021.7 |
| 20260507170815 | 17 | 157 | 0.0 | 0.0 | 0.00 | 0.00 | 0.00 | 69 | 1021.7 |
| 20260507170311 | 18 | 159 | 0.0 | 0.0 | 0.00 | 0.00 | 0.00 | 68 | 1021.7 |
| 20260507165807 | 18 | 155 | 0.0 | 0.0 | 0.00 | 0.00 | 0.00 | 68 | 1021.7 |
| 20260507165306 | 18 | 148 | 0.0 | 0.0 | 0.00 | 0.00 | 0.00 | 67 | 1021.7 |
| 20260507164759 | 18 | 166 | 0.0 | 0.0 | 0.00 | 0.00 | 0.00 | 66 | 1021.8 |
| 20260507164257 | 18 | 154 | 0.0 | 0.0 | 0.00 | 0.00 | 0.00 | 66 | 1021.7 |
| 20260507163754 | 18 | 192 | 1.6 | 3.2 | 0.00 | 0.00 | 0.00 | 66 | 1021.8 |
| 20260507163252 | 18 | 229 | 3.2 | 3.2 | 0.00 | 0.00 | 0.00 | 65 | 1021.8 |
| 20260507162747 | 18 | 181 | 1.6 | 3.2 | 0.00 | 0.00 | 0.00 | 65 | 1021.8 |
| 20260507162243 | 18 | 192 | 1.6 | 3.2 | 0.00 | 0.00 | 0.00 | 65 | 1021.6 |
| 20260507161741 | 18 | 214 | 3.2 | 4.8 | 0.00 | 0.00 | 0.00 | 64 | 1021.7 |
| 20260507161237 | 19 | 183 | 3.2 | 4.8 | 0.00 | 0.00 | 0.00 | 63 | 1021.6 |
| 20260507160732 | 19 | 209 | 4.8 | 4.8 | 0.00 | 0.00 | 0.00 | 63 | 1021.6 |
| 20260507160229 | 19 | 200 | 3.2 | 4.8 | 0.00 | 0.00 | 0.00 | 62 | 1021.8 |
| 20260507155725 | 19 | 193 | 3.2 | 3.2 | 0.00 | 0.00 | 0.00 | 63 | 1021.6 |
| 20260507155221 | 19 | 192 | 4.8 | 4.8 | 0.00 | 0.00 | 0.00 | 63 | 1021.7 |
| 20260507154719 | 20 | 238 | 4.8 | 4.8 | 0.00 | 0.00 | 0.00 | 62 | 1021.6 |
| 20260507154216 | 20 | 203 | 4.8 | 8.0 | 0.00 | 0.00 | 0.00 | 64 | 1021.6 |
| 20260507153712 | 20 | 200 | 6.4 | 8.0 | 0.00 | 0.00 | 0.00 | 62 | 1021.6 |
| 20260507153209 | 20 | 193 | 6.4 | 9.7 | 0.00 | 0.00 | 0.00 | 62 | 1021.8 |
| 20260507152705 | 20 | 213 | 6.4 | 8.0 | 0.00 | 0.00 | 0.00 | 63 | 1021.7 |
| 20260507152201 | 20 | 193 | 6.4 | 9.7 | 0.00 | 0.00 | 0.00 | 63 | 1021.7 |
| 20260507151657 | 20 | 185 | 6.4 | 11.3 | 0.00 | 0.00 | 0.00 | 63 | 1021.9 |
| 20260507151154 | 20 | 186 | 3.2 | 9.7 | 0.00 | 0.00 | 0.00 | 64 | 1021.8 |
| 20260507150651 | 20 | 201 | 11.3 | 11.3 | 0.00 | 0.00 | 0.00 | 64 | 1021.7 |
| 20260507150148 | 20 | 202 | 8.0 | 11.3 | 0.00 | 0.00 | 0.00 | 64 | 1021.9 |
| 20260507145643 | 20 | 170 | 8.0 | 12.9 | 0.00 | 0.00 | 0.00 | 64 | 1022.0 |
| 20260507145141 | 20 | 206 | 11.3 | 12.9 | 0.00 | 0.00 | 0.00 | 64 | 1021.6 |
| 20260507144637 | 20 | 171 | 4.8 | 9.7 | 0.00 | 0.00 | 0.00 | 64 | 1021.6 |
| 20260507144136 | 20 | 172 | 8.0 | 9.7 | 0.00 | 0.00 | 0.00 | 65 | 1021.9 |
| 20260507143632 | 20 | 180 | 11.3 | 14.5 | 0.00 | 0.00 | 0.00 | 64 | 1021.8 |
| 20260507143129 | 20 | 148 | 6.4 | 11.3 | 0.00 | 0.00 | 0.00 | 64 | 1021.9 |
| 20260507142624 | 20 | 199 | 8.0 | 11.3 | 0.00 | 0.00 | 0.00 | 64 | 1021.8 |
| 20260507142122 | 20 | 187 | 11.3 | 14.5 | 0.00 | 0.00 | 0.00 | 62 | 1021.6 |